Regional Weather Roundup
Issued by NWS Kansas City/Pleasant Hill, MO

Home | Current Version | Previous Version | Text Only | Print | Product List | Glossary On
Versions: 1 2 3 4 5 6 7 8 9 10 11 12 13 14 15 16 17 18 19 20 21 22 23 24 25 26 27 28 29 30 31 32 33 34 35 36 37 38 39 40 41 42 43 44 45 46 47 48 49 50
000
ASUS43 KEAX 231610
RWREAX

WEATHER ROUNDUP FOR EASTERN KANSAS AND NORTHWEST MISSOURI
NATIONAL WEATHER SERVICE KANSAS CITY/PLEASANT HILL MO
1100 AM CDT TUE MAY 23 2017

KSZ040-057-103>105-MOZ028-029-037-043-231700-
...KANSAS CITY METROPOLITAN AREA...

CITY           SKY/WX    TMP DP  RH WIND       PRES   REMARKS
K.C. INTL      PTSUNNY   63  49  60 N14G20    29.88F
K.C. DOWNTOWN  MOSUNNY   63  48  58 NW12G18   29.87F
LEES SUMMIT    CLOUDY    61  52  72 NW16G23   29.88F
OLATHE - IXD   PTSUNNY   62  50  64 NW13      29.89F
OLATHE - OJC   MOSUNNY   60  49  66 N12G21    29.88F
LAWRENCE       MOSUNNY   63  50  62 NW14      29.90F

$$

MOZ001>008-011>017-020>025-030>033-038>040-044>046-053-054-231700-
...NORTHERN AND CENTRAL MISSOURI...

CITY           SKY/WX    TMP DP  RH WIND       PRES   REMARKS
ST. JOSEPH     MOSUNNY   60  49  66 N9        29.89S
MOSBY          SUNNY     61  46  59 N14       29.87S
WARRENSBURG    CLOUDY    55  52  88 NW15      29.87R
WHITEMAN AFB   NOT AVBL
CLINTON        PTSUNNY   61  57  88 NW13      29.85S
SEDALIA        CLOUDY    61  59  93 NW17      29.84F
WARSAW         NOT AVBL
CHILLICOTHE      N/A     62  50  64 VRB5G17   29.85F
KIRKSVILLE     CLOUDY    56  53  90 NW6       29.83F

$$

MOZ041-047>049-056>058-063>065-088>090-097-231700-
...EASTERN AND SOUTHERN MISSOURI...

CITY           SKY/WX    TMP DP  RH WIND       PRES   REMARKS
ST. LOUIS INTL CLOUDY    70  57  63 NW5       29.77F
SPIRIT OF STL  LGT RAIN  65  57  75 W3        29.76F
COLUMBIA       CLOUDY    60  57  89 NW14      29.81S
JEFFERSON CITY CLOUDY    65  56  72 NW10      29.80F
ROLLA          CLOUDY    61  59  93 NW7       29.79F
OSAGE BEACH    CLOUDY    62  57  83 NW6       29.82F
SPRINGFIELD    PTSUNNY   65  58  78 NW14      29.83S
BRANSON        PTSUNNY   66  59  77 W13       29.83F
JOPLIN         CLOUDY    63  56  78 N10       29.88R
WEST PLAINS    CLOUDY    65  57  75 VRB7      29.81S

$$

IAZ060-094-KSZ022-034>040-054-083-096-NEZ052-066-093-231700-
...KANSAS...SOUTHEAST NEBRASKA AND IOWA...

CITY           SKY/WX    TMP DP  RH WIND       PRES   REMARKS
TOPEKA         MOSUNNY   62  50  64 NW13      29.90F
MANHATTAN      SUNNY     63  46  54 N9G21     29.93F
EMPORIA        MOSUNNY   62  45  53 NW12G20   29.92F
CHANUTE        CLOUDY    60  48  64 N13       29.91R
WICHITA        MOSUNNY   63  49  60 N17G23    29.96F
OMAHA          CLOUDY    56  45  66 NW10      29.90S
LINCOLN        CLOUDY    59  46  62 NW7       29.93F
FALLS CITY     SUNNY     61  46  57 NW9       29.89F
LAMONI         PTSUNNY   59  48  67 NW14      29.85S
DES MOINES     PTSUNNY   61  46  57 NW13      29.82F

$$




USA.gov is the U.S. government's official web portal to all federal, state and local government web resources and services.